EW6511 Weather Reports


Display with metric or nautical units.
time (UTC)temp
F
wind
direction
speed
MPH
gust
MPH
rain 1hr
in
rain 24hr
in
rain mn
in
humidity
%
barometer
mb
20260906183631 72 46 0.0 2.0 0.00 0.00 0.00 58 1025.8
20260906181633 0 0.0 0.0 0.00 0.00 0.00 1025.6
20260906180537 0 0.0 0.0 0.00 0.00 0.00 1025.6
20260906175531 76 0.0 0.0 0.00 0.00 0.00 52 1025.6
20260906174524 76 46 3.0 4.0 0.00 0.00 0.00 52 1025.5
20260906173523 76 46 3.0 4.0 0.00 0.00 0.00 50 1025.5
20260906172525 77 46 2.0 3.0 0.00 0.00 0.00 49 1025.6
20260906171523 78 46 2.0 3.0 0.00 0.00 0.00 50 1025.5
20260906165521 78 46 3.0 5.0 0.00 0.00 0.00 49 1025.6
20260906163519 79 46 4.0 6.0 0.00 0.00 0.00 47 1025.6
20260906162515 80 355 2.0 5.0 0.00 0.00 0.00 46 1025.6
20260906161517 80 315 0.0 3.0 0.00 0.00 0.00 46 1025.6
20260906160517 80 315 1.0 4.0 0.00 0.00 0.00 44 1025.6
20260906155516 80 315 2.0 4.0 0.00 0.00 0.00 45 1025.7
20260906154517 79 315 3.0 5.0 0.00 0.00 0.00 45 1025.7
20260906152517 79 309 3.0 5.0 0.00 0.00 0.00 47 1025.8
20260906150515 79 305 3.0 6.0 0.00 0.00 0.00 47 1025.9
20260906145509 79 301 3.0 9.0 0.00 0.00 0.00 46 1025.9
20260906143509 78 9 6.0 9.0 0.00 0.00 0.00 47 1025.9
20260906142502 79 11 4.0 8.0 0.00 0.00 0.00 48 1025.9
20260906141501 78 11 2.0 10.0 0.00 0.00 0.00 46 1025.9
20260906135459 78 313 2.0 6.0 0.00 0.00 0.00 50 1025.9
20260906134458 78 322 2.0 11.0 0.00 0.00 0.00 50 1026.0
20260906133457 78 323 5.0 11.0 0.00 0.00 0.00 50 1026.1
20260906132456 78 278 5.0 9.0 0.00 0.00 0.00 50 1026.1
20260906131455 77 313 4.0 8.0 0.00 0.00 0.00 53 1026.3
20260906130453 78 41 3.0 11.0 0.00 0.00 0.00 51 1026.4
20260906124446 77 11 3.0 5.0 0.00 0.00 0.00 55 1026.6
20260906122435 76 0 4.0 9.0 0.00 0.00 0.00 56 1026.6
20260906121434 76 340 5.0 10.0 0.00 0.00 0.00 56 1026.7
20260906114431 76 42 2.0 5.0 0.00 0.00 0.00 55 1026.9
20260906113432 75 95 3.0 6.0 0.00 0.00 0.00 57 1026.9
20260906112432 75 63 0.0 8.0 0.00 0.00 0.00 56 1027.1
20260906111430 73 0.0 0.0 0.00 0.00 0.00 61 1027.1
20260906110418 73 336 0.0 3.0 0.00 0.00 0.00 61 1027.1
20260906105347 73 342 2.0 5.0 0.00 0.00 0.00 60 1027.3
20260906103345 72 316 4.0 10.0 0.00 0.00 0.00 64 1027.5
20260906102347 71 315 5.0 9.0 0.00 0.00 0.00 63 1027.5
20260906100346 70 311 7.0 11.0 0.00 0.00 0.00 64 1027.6
20260906095341 70 309 7.0 12.0 0.00 0.00 0.00 65 1027.6
20260906094341 71 309 5.0 11.0 0.00 0.00 0.00 64 1027.7
20260906093340 70 47 3.0 6.0 0.00 0.00 0.00 65 1027.7
20260906092340 70 36 4.0 6.0 0.00 0.00 0.00 66 1027.6
20260906091340 69 53 5.0 7.0 0.00 0.00 0.00 67 1027.5
20260906090339 69 56 4.0 7.0 0.00 0.00 0.00 66 1027.5
20260906085339 68 44 4.0 8.0 0.00 0.00 0.00 67 1027.6
20260906083340 68 50 3.0 9.0 0.00 0.00 0.00 68 1027.6
20260906082334 67 65 1.0 4.0 0.00 0.00 0.00 68 1027.7
20260906081334 66 48 1.0 4.0 0.00 0.00 0.00 69 1027.8
20260906080333 66 55 1.0 5.0 0.00 0.00 0.00 70 1027.8
20260906075333 66 51 0.0 2.0 0.00 0.00 0.00 71 1027.7
20260906073333 65 51 1.0 3.0 0.00 0.00 0.00 72 1027.6
20260906072334 64 51 2.0 4.0 0.00 0.00 0.00 73 1027.6
20260906071334 63 52 3.0 5.0 0.00 0.00 0.00 75 1027.4
20260906070333 62 53 3.0 5.0 0.00 0.00 0.00 75 1027.5
20260906064328 61 90 2.0 3.0 0.00 0.00 0.00 81 1027.5
20260906063329 61 90 3.0 3.0 0.00 0.00 0.00 83 1027.4
20260906061326 0 0.0 0.0 0.00 0.00 0.00 1027.4
20260906060327 58 69 3.0 4.0 0.00 0.00 0.00 84 1027.4
20260906055322 58 69 3.0 4.0 0.00 0.00 0.00 84 1027.3
20260906054313 58 69 3.0 5.0 0.00 0.00 0.00 84 1027.2
20260906053313 58 64 3.0 6.0 0.00 0.00 0.00 84 1027.1
20260906052315 0 0.0 0.0 0.00 0.00 0.00 1027.1
20260906051233 0 0.0 0.0 0.00 0.00 0.00 1027.2
20260906045138 0 0.0 0.0 0.00 0.00 0.00 1027.1
20260906044121 0 0.0 0.0 0.00 0.00 0.00 1026.9
20260906042032 0 0.0 0.0 0.00 0.00 0.00 1026.9
20260906041030 0 0.0 0.0 0.00 0.00 0.00 1027.1
20260906035936 0 0.0 0.0 0.00 0.00 0.00 1026.9
20260906034934 0 0.0 0.0 0.00 0.00 0.00 1026.9
20260906033933 0 0.0 0.0 0.00 0.00 0.00 1027.1
20260906032931 0 0.0 0.0 0.00 0.00 0.00 1027.1
20260906031928 0 0.0 0.0 0.00 0.00 0.00 1027.1
20260906030924 0 0.0 0.0 0.00 0.00 0.00 1027.2
20260906025831 0 0.0 0.0 0.00 0.00 0.00 1027.2
20260906024827 0 0.0 0.0 0.00 0.00 0.00 1027.3
20260906015634 0 0.0 0.0 0.00 0.00 0.00 1027.4
20260906014630 0 0.0 0.0 0.00 0.00 0.00 1027.4
20260906013538 0 0.0 0.0 0.00 0.00 0.00 1027.4
20260906012533 0 0.0 0.0 0.00 0.00 0.00 1027.3
20260906010529 0 0.0 0.0 0.00 0.00 0.00 1027.1
20260906004438 0 0.0 0.0 0.00 0.00 0.00 1027.3
20260906002329 0 0.0 0.0 0.00 0.00 0.00 1027.5
20260906001330 0 0.0 0.0 0.00 0.00 0.00 1027.6
20260906000329 0 0.0 0.0 0.00 0.00 0.00 1027.6
20260905235322 0 0.0 0.0 0.00 0.00 0.00 1027.6
20260905234231 0 0.0 0.0 0.00 0.00 0.00 1027.5
20260905233231 0 0.0 0.0 0.00 0.00 0.00 1027.7
20260905232231 62 75 3.0 1.0 0.00 0.00 0.00 69 1027.7
20260905224129 0 0.0 0.0 0.00 0.00 0.00 1027.8
20260905223125 0 0.0 0.0 0.00 0.00 0.00 1027.9
20260905222039 0 0.0 0.0 0.00 0.00 0.00 1027.8
20260905220018 0 0.0 0.0 0.00 0.00 0.00 1028.0
20260905214933 0 0.0 0.0 0.00 0.00 0.00 1027.9
20260905212839 0 0.0 0.0 0.00 0.00 0.00 1028.0
20260905211841 66 59 1.0 2.0 0.00 0.00 0.00 62 1027.9
20260905210833 66 59 1.0 3.0 0.00 0.00 0.00 62 1027.9
20260905205831 66 59 1.0 3.0 0.00 0.00 0.00 62 1027.9
20260905204826 67 59 0.0 2.0 0.00 0.00 0.00 60 1028.0
20260905203824 67 59 1.0 2.0 0.00 0.00 0.00 59 1028.0
20260905202825 0 0.0 0.0 0.00 0.00 0.00 1028.1
20260905195638 69 59 4.0 3.0 0.00 0.00 0.00 56 1028.0
20260905194635 69 59 4.0 5.0 0.00 0.00 0.00 56 1027.9
20260905193629 0 0.0 0.0 0.00 0.00 0.00 1027.9
20260905192625 0 0.0 0.0 0.00 0.00 0.00 1027.8
20260905191535 0 0.0 0.0 0.00 0.00 0.00 1027.6
20260905190439 0 0.0 0.0 0.00 0.00 0.00 1027.7
20260905185431 69 0.0 0.0 0.00 0.00 0.00 55 1027.7
20260905184336 69 36 4.0 5.0 0.00 0.00 0.00 55 1027.5